Location: Newark
(42.9277°N, 71.8621°W)
Time: 00:58:51
(UTC+00:00)

N. Korean satellite - Visible Passes

Search period start: 02 April 2020 00:00
Search period end: 12 April 2020 00:00
Orbit: 454 x 507 km, 97.2° (Epoch: 31 March)

Date Brightness Start Highest point End Pass type
(mag) Time Alt. Az. Time Alt. Az. Time Alt. Az.
02 Apr 9.9 09:33:00 10° ENE 09:34:36 13° E 09:36:11 10° ESE visible
05 Apr 9.5 09:48:38 10° NE 09:51:15 20° E 09:53:51 10° SE visible
09 Apr 9.6 09:39:54 10° NE 09:42:05 16° E 09:44:15 10° SE visible
